Time,TemperatureF,DewpointF,PressureIn,WindDirection,WindDirectionDegrees,WindSpeedMPH,WindSpeedGustMPH,Humidity,HourlyPrecipIn,Conditions,Clouds,dailyrainin,SoftwareType,DateUTC
2013-01-26 00:00:00,16.0,6.0,29.53,NNW,338,1.6,1.6,64,0.00,,,0.00,VWS V14.01,2013-01-26 05:00:00,
2013-01-26 00:01:00,16.0,6.0,29.53,NNW,338,1.1,1.1,64,0.00,,,0.00,VWS V14.01,2013-01-26 05:01:00,
2013-01-26 00:02:00,16.0,6.0,29.53,NNW,338,1.6,1.6,64,0.00,,,0.00,VWS V14.01,2013-01-26 05:02:00,
2013-01-26 00:07:00,15.8,5.8,29.53,NNW,338,1.6,1.6,64,0.00,,,0.00,VWS V14.01,2013-01-26 05:07:00,
2013-01-26 00:12:00,15.6,5.3,29.53,NNW,338,1.3,1.3,63,0.00,,,0.00,VWS V14.01,2013-01-26 05:12:00,
2013-01-26 00:17:00,15.6,5.3,29.53,NNW,338,0.0,0.0,63,0.00,,,0.00,VWS V14.01,2013-01-26 05:17:00,
2013-01-26 00:22:00,15.4,5.1,29.53,NNW,338,2.0,2.0,63,0.00,,,0.00,VWS V14.01,2013-01-26 05:22:00,
2013-01-26 00:27:00,15.3,4.9,29.53,NNW,338,1.3,1.3,63,0.00,,,0.00,VWS V14.01,2013-01-26 05:27:00,
2013-01-26 00:32:00,14.7,4.4,29.53,NNW,338,2.0,2.0,63,0.00,,,0.00,VWS V14.01,2013-01-26 05:32:00,
2013-01-26 00:37:00,14.5,4.2,29.53,NNW,338,0.0,0.0,63,0.00,,,0.00,VWS V14.01,2013-01-26 05:37:00,
2013-01-26 00:42:00,14.4,3.7,29.53,NNW,338,1.1,1.1,62,0.00,,,0.00,VWS V14.01,2013-01-26 05:42:00,
2013-01-26 00:47:00,14.2,3.6,29.53,NNW,338,1.6,1.6,62,0.00,,,0.00,VWS V14.01,2013-01-26 05:47:00,
2013-01-26 00:53:00,13.8,3.6,29.53,NNW,338,1.3,1.3,63,0.00,,,0.00,VWS V14.01,2013-01-26 05:53:00,
2013-01-26 00:58:00,13.8,3.6,29.53,NNW,338,1.3,1.3,63,0.00,,,0.00,VWS V14.01,2013-01-26 05:58:00,
2013-01-26 01:03:00,13.6,3.4,29.53,NNW,338,1.3,1.3,63,0.00,,,0.00,VWS V14.01,2013-01-26 06:03:00,
2013-01-26 01:08:00,13.6,3.4,29.56,NNW,338,0.0,0.0,63,0.00,,,0.00,VWS V14.01,2013-01-26 06:08:00,
2013-01-26 01:13:00,13.6,3.4,29.56,NNW,338,2.7,2.7,63,0.00,,,0.00,VWS V14.01,2013-01-26 06:13:00,
2013-01-26 01:18:00,13.6,3.4,29.53,NNW,338,1.3,1.3,63,0.00,,,0.00,VWS V14.01,2013-01-26 06:18:00,
2013-01-26 01:23:00,13.8,3.6,29.53,NNW,338,0.0,0.0,63,0.00,,,0.00,VWS V14.01,2013-01-26 06:23:00,
2013-01-26 01:28:00,14.0,4.1,29.53,NNW,338,0.0,0.0,64,0.00,,,0.00,VWS V14.01,2013-01-26 06:28:00,
2013-01-26 01:33:00,14.2,4.2,29.56,NNW,338,1.6,1.6,64,0.00,,,0.00,VWS V14.01,2013-01-26 06:33:00,
2013-01-26 01:38:00,14.2,4.2,29.56,NNW,338,2.5,2.5,64,0.00,,,0.00,VWS V14.01,2013-01-26 06:38:00,
2013-01-26 01:43:00,14.0,4.1,29.56,NNW,338,0.0,0.0,64,0.00,,,0.00,VWS V14.01,2013-01-26 06:43:00,
2013-01-26 01:48:00,14.0,4.1,29.56,NNW,338,0.0,0.0,64,0.00,,,0.00,VWS V14.01,2013-01-26 06:48:00,
2013-01-26 01:53:00,14.2,3.9,29.56,NNW,338,0.0,0.0,63,0.00,,,0.00,VWS V14.01,2013-01-26 06:53:00,
2013-01-26 01:59:00,14.4,4.1,29.56,NNW,338,0.0,0.0,63,0.00,,,0.00,VWS V14.01,2013-01-26 06:59:00,
2013-01-26 02:04:00,14.2,3.9,29.56,NNW,338,0.0,0.0,63,0.00,,,0.00,VWS V14.01,2013-01-26 07:04:00,
2013-01-26 02:09:00,14.2,3.9,29.56,NNW,338,1.1,1.1,63,0.00,,,0.00,VWS V14.01,2013-01-26 07:09:00,
2013-01-26 02:14:00,14.0,3.7,29.56,NNW,338,0.0,0.0,63,0.00,,,0.00,VWS V14.01,2013-01-26 07:14:00,
2013-01-26 02:19:00,13.8,3.6,29.56,NNW,338,0.0,0.0,63,0.00,,,0.00,VWS V14.01,2013-01-26 07:19:00,
2013-01-26 02:24:00,13.6,3.4,29.56,NNW,338,0.0,0.0,63,0.00,,,0.00,VWS V14.01,2013-01-26 07:24:00,
2013-01-26 02:29:00,13.6,3.4,29.56,NNW,338,0.0,0.0,63,0.00,,,0.00,VWS V14.01,2013-01-26 07:29:00,
2013-01-26 02:34:00,13.8,3.6,29.56,NNW,338,0.0,0.0,63,0.00,,,0.00,VWS V14.01,2013-01-26 07:34:00,
2013-01-26 02:39:00,14.0,3.7,29.56,NNW,338,1.1,1.1,63,0.00,,,0.00,VWS V14.01,2013-01-26 07:39:00,
2013-01-26 02:44:00,13.8,3.6,29.56,NNW,338,0.0,0.0,63,0.00,,,0.00,VWS V14.01,2013-01-26 07:44:00,
2013-01-26 02:49:00,14.0,3.7,29.56,NNW,338,0.0,0.0,63,0.00,,,0.00,VWS V14.01,2013-01-26 07:49:00,
2013-01-26 02:54:00,14.2,3.6,29.56,NNW,338,0.0,0.0,62,0.00,,,0.00,VWS V14.01,2013-01-26 07:54:00,
2013-01-26 02:59:00,14.0,3.7,29.56,NNW,338,0.0,0.0,63,0.00,,,0.00,VWS V14.01,2013-01-26 07:59:00,
2013-01-26 03:04:00,14.2,3.9,29.56,NNW,338,0.0,0.0,63,0.00,,,0.00,VWS V14.01,2013-01-26 08:04:00,
2013-01-26 03:09:00,14.4,4.1,29.56,NNW,338,0.0,0.0,63,0.00,,,0.00,VWS V14.01,2013-01-26 08:09:00,
2013-01-26 03:14:00,14.4,4.1,29.56,NNW,338,0.0,0.0,63,0.00,,,0.00,VWS V14.01,2013-01-26 08:14:00,
2013-01-26 03:20:00,14.4,4.1,29.56,NNW,338,0.0,0.0,63,0.00,,,0.00,VWS V14.01,2013-01-26 08:20:00,
2013-01-26 03:25:00,14.2,3.9,29.56,NNW,338,1.6,1.6,63,0.00,,,0.00,VWS V14.01,2013-01-26 08:25:00,
2013-01-26 03:30:00,14.2,3.9,29.56,NNW,338,1.6,1.6,63,0.00,,,0.00,VWS V14.01,2013-01-26 08:30:00,
2013-01-26 03:35:00,14.0,3.7,29.56,NNW,338,2.0,2.0,63,0.00,,,0.00,VWS V14.01,2013-01-26 08:35:00,
2013-01-26 03:40:00,13.8,3.6,29.56,NNW,338,0.0,0.0,63,0.00,,,0.00,VWS V14.01,2013-01-26 08:40:00,
2013-01-26 03:45:00,14.0,4.1,29.56,NNW,338,0.0,0.0,64,0.00,,,0.00,VWS V14.01,2013-01-26 08:45:00,
2013-01-26 03:50:00,14.2,3.9,29.56,NNW,338,0.0,0.0,63,0.00,,,0.00,VWS V14.01,2013-01-26 08:50:00,
2013-01-26 03:55:00,14.2,3.9,29.56,NNW,338,0.0,0.0,63,0.00,,,0.00,VWS V14.01,2013-01-26 08:55:00,
2013-01-26 04:00:00,14.4,4.4,29.56,NNW,338,0.0,0.0,64,0.00,,,0.00,VWS V14.01,2013-01-26 09:00:00,
2013-01-26 04:05:00,14.5,4.6,29.56,NNW,338,0.0,0.0,64,0.00,,,0.00,VWS V14.01,2013-01-26 09:05:00,
2013-01-26 04:10:00,14.5,4.6,29.56,NNW,338,0.0,0.0,64,0.00,,,0.00,VWS V14.01,2013-01-26 09:10:00,
2013-01-26 04:15:00,14.5,4.6,29.56,NNW,338,0.0,0.0,64,0.00,,,0.00,VWS V14.01,2013-01-26 09:15:00,
2013-01-26 04:20:00,14.9,4.9,29.56,NNW,338,0.0,0.0,64,0.00,,,0.00,VWS V14.01,2013-01-26 09:20:00,
2013-01-26 04:25:00,14.7,4.4,29.56,NNW,338,0.0,0.0,63,0.00,,,0.00,VWS V14.01,2013-01-26 09:25:00,
2013-01-26 04:30:00,14.5,4.2,29.56,NNW,338,0.0,0.0,63,0.00,,,0.00,VWS V14.01,2013-01-26 09:30:00,
2013-01-26 04:35:00,14.4,3.7,29.56,NNW,338,0.0,0.0,62,0.00,,,0.00,VWS V14.01,2013-01-26 09:35:00,
2013-01-26 04:41:00,14.2,3.6,29.56,NNW,338,0.0,0.0,62,0.00,,,0.00,VWS V14.01,2013-01-26 09:41:00,
2013-01-26 04:46:00,13.8,3.2,29.56,NNW,338,0.0,0.0,62,0.00,,,0.00,VWS V14.01,2013-01-26 09:46:00,
2013-01-26 04:51:00,13.8,3.2,29.56,NNW,338,0.0,0.0,62,0.00,,,0.00,VWS V14.01,2013-01-26 09:51:00,
2013-01-26 04:56:00,13.8,3.2,29.56,NNW,338,0.0,0.0,62,0.00,,,0.00,VWS V14.01,2013-01-26 09:56:00,
2013-01-26 05:01:00,13.6,3.0,29.56,NNW,338,0.0,0.0,62,0.00,,,0.00,VWS V14.01,2013-01-26 10:01:00,
2013-01-26 05:06:00,13.6,3.0,29.56,NNW,338,0.0,0.0,62,0.00,,,0.00,VWS V14.01,2013-01-26 10:06:00,
2013-01-26 05:11:00,13.5,2.9,29.56,NNW,338,0.0,0.0,62,0.00,,,0.00,VWS V14.01,2013-01-26 10:11:00,
2013-01-26 05:16:00,13.5,2.9,29.56,NNW,338,0.0,0.0,62,0.00,,,0.00,VWS V14.01,2013-01-26 10:16:00,
2013-01-26 05:21:00,13.6,3.0,29.59,NNW,338,0.0,0.0,62,0.00,,,0.00,VWS V14.01,2013-01-26 10:21:00,
2013-01-26 05:26:00,13.5,2.9,29.59,NNW,338,0.0,0.0,62,0.00,,,0.00,VWS V14.01,2013-01-26 10:26:00,
2013-01-26 05:31:00,13.6,3.0,29.59,NNW,338,2.2,2.2,62,0.00,,,0.00,VWS V14.01,2013-01-26 10:31:00,
2013-01-26 05:36:00,13.3,2.7,29.59,NNW,338,2.5,2.5,62,0.00,,,0.00,VWS V14.01,2013-01-26 10:36:00,
2013-01-26 05:41:00,12.6,2.0,29.59,NNW,338,2.7,2.7,62,0.00,,,0.00,VWS V14.01,2013-01-26 10:41:00,
2013-01-26 05:46:00,12.6,2.0,29.59,NNW,338,0.9,0.9,62,0.00,,,0.00,VWS V14.01,2013-01-26 10:46:00,
2013-01-26 05:51:00,12.6,2.0,29.59,NNW,338,1.1,1.1,62,0.00,,,0.00,VWS V14.01,2013-01-26 10:51:00,
2013-01-26 05:57:00,12.2,1.7,29.59,NNW,338,1.6,1.6,62,0.00,,,0.00,VWS V14.01,2013-01-26 10:57:00,
2013-01-26 06:02:00,12.0,1.5,29.59,NNW,338,2.0,2.0,62,0.00,,,0.00,VWS V14.01,2013-01-26 11:02:00,
2013-01-26 06:07:00,12.0,1.5,29.59,NNW,338,0.9,0.9,62,0.00,,,0.00,VWS V14.01,2013-01-26 11:07:00,
2013-01-26 06:12:00,12.2,1.7,29.59,NNW,338,1.3,1.3,62,0.00,,,0.00,VWS V14.01,2013-01-26 11:12:00,
2013-01-26 06:17:00,12.6,2.0,29.59,NNW,338,0.0,0.0,62,0.00,,,0.00,VWS V14.01,2013-01-26 11:17:00,
2013-01-26 06:22:00,12.7,2.2,29.62,NNW,338,0.0,0.0,62,0.00,,,0.00,VWS V14.01,2013-01-26 11:22:00,
2013-01-26 06:27:00,12.7,2.2,29.62,NNW,338,1.6,1.6,62,0.00,,,0.00,VWS V14.01,2013-01-26 11:27:00,
2013-01-26 06:32:00,12.7,2.2,29.62,NNW,338,2.5,2.5,62,0.00,,,0.00,VWS V14.01,2013-01-26 11:32:00,
2013-01-26 06:37:00,12.7,2.2,29.62,NNW,338,2.9,2.9,62,0.00,,,0.00,VWS V14.01,2013-01-26 11:37:00,
2013-01-26 06:42:00,12.9,2.4,29.62,NNW,338,0.9,0.9,62,0.00,,,0.00,VWS V14.01,2013-01-26 11:42:00,
2013-01-26 06:47:00,12.9,2.4,29.62,NNW,338,1.1,1.1,62,0.00,,,0.00,VWS V14.01,2013-01-26 11:47:00,
2013-01-26 06:52:00,13.1,2.5,29.62,NNW,338,0.0,0.0,62,0.00,,,0.00,VWS V14.01,2013-01-26 11:52:00,
2013-01-26 06:57:00,13.3,2.7,29.62,NNW,338,0.0,0.0,62,0.00,,,0.00,VWS V14.01,2013-01-26 11:57:00,
2013-01-26 07:03:00,13.6,3.0,29.62,NNW,338,0.0,0.0,62,0.00,,,0.00,VWS V14.01,2013-01-26 12:03:00,
2013-01-26 07:08:00,13.5,2.9,29.62,NNW,338,1.3,1.3,62,0.00,,,0.00,VWS V14.01,2013-01-26 12:08:00,
2013-01-26 07:13:00,13.6,3.0,29.62,NNW,338,2.5,2.5,62,0.00,,,0.00,VWS V14.01,2013-01-26 12:13:00,
2013-01-26 07:18:00,13.6,3.0,29.62,NNW,338,0.0,0.0,62,0.00,,,0.00,VWS V14.01,2013-01-26 12:18:00,
2013-01-26 07:23:00,14.2,4.6,29.62,NNW,338,0.0,0.0,65,0.00,,,0.00,VWS V14.01,2013-01-26 12:23:00,
2013-01-26 07:28:00,14.4,4.8,29.62,NNW,338,0.0,0.0,65,0.00,,,0.00,VWS V14.01,2013-01-26 12:28:00,
2013-01-26 07:33:00,14.5,4.9,29.62,NNW,338,0.0,0.0,65,0.00,,,0.00,VWS V14.01,2013-01-26 12:33:00,
2013-01-26 07:38:00,14.9,5.3,29.62,NNW,338,0.0,0.0,65,0.00,,,0.00,VWS V14.01,2013-01-26 12:38:00,
2013-01-26 07:43:00,14.9,5.3,29.62,NNW,338,0.0,0.0,65,0.00,,,0.00,VWS V14.01,2013-01-26 12:43:00,
2013-01-26 07:48:00,14.9,5.3,29.62,NNW,338,0.0,0.0,65,0.00,,,0.00,VWS V14.01,2013-01-26 12:48:00,
2013-01-26 07:53:00,14.9,5.3,29.62,NNW,338,2.0,2.0,65,0.00,,,0.00,VWS V14.01,2013-01-26 12:53:00,
2013-01-26 07:58:00,14.9,5.3,29.62,NNW,338,1.3,1.3,65,0.00,,,0.00,VWS V14.01,2013-01-26 12:58:00,
2013-01-26 08:03:00,14.9,5.3,29.62,NNW,338,1.6,1.6,65,0.00,,,0.00,VWS V14.01,2013-01-26 13:03:00,
2013-01-26 08:08:00,15.1,5.4,29.62,NNW,338,0.0,0.0,65,0.00,,,0.00,VWS V14.01,2013-01-26 13:08:00,
2013-01-26 08:13:00,15.4,6.1,29.62,NNW,338,0.0,0.0,66,0.00,,,0.00,VWS V14.01,2013-01-26 13:13:00,
2013-01-26 08:18:00,15.6,6.0,29.65,NNW,338,0.9,0.9,65,0.00,,,0.00,VWS V14.01,2013-01-26 13:18:00,
2013-01-26 08:23:00,16.0,6.3,29.65,NNW,338,0.0,0.0,65,0.00,,,0.00,VWS V14.01,2013-01-26 13:23:00,
2013-01-26 08:28:00,16.2,6.5,29.65,NNW,338,0.0,0.0,65,0.00,,,0.00,VWS V14.01,2013-01-26 13:28:00,
2013-01-26 08:33:00,16.2,6.8,29.65,NNW,338,1.3,1.3,66,0.00,,,0.00,VWS V14.01,2013-01-26 13:33:00,
2013-01-26 08:38:00,16.3,6.7,29.65,NNW,338,1.3,1.3,65,0.00,,,0.00,VWS V14.01,2013-01-26 13:38:00,
2013-01-26 08:44:00,16.5,7.2,29.65,NNW,338,0.0,0.0,66,0.00,,,0.00,VWS V14.01,2013-01-26 13:44:00,
2013-01-26 08:49:00,16.9,7.5,29.65,NNW,338,0.0,0.0,66,0.00,,,0.00,VWS V14.01,2013-01-26 13:49:00,
2013-01-26 08:54:00,17.1,7.7,29.65,NNW,338,0.0,0.0,66,0.00,,,0.00,VWS V14.01,2013-01-26 13:54:00,
2013-01-26 08:59:00,17.6,8.2,29.65,NNW,338,0.0,0.0,66,0.00,,,0.00,VWS V14.01,2013-01-26 13:59:00,
2013-01-26 09:04:00,18.0,8.2,29.65,NNW,338,1.6,1.6,65,0.00,,,0.00,VWS V14.01,2013-01-26 14:04:00,
2013-01-26 09:09:00,18.3,8.5,29.65,West,270,3.1,3.1,65,0.00,,,0.00,VWS V14.01,2013-01-26 14:09:00,
2013-01-26 09:14:00,18.5,8.4,29.65,WNW,292,2.5,2.5,64,0.00,,,0.00,VWS V14.01,2013-01-26 14:14:00,
2013-01-26 09:19:00,19.0,8.9,29.65,WNW,292,2.5,2.5,64,0.00,,,0.00,VWS V14.01,2013-01-26 14:19:00,
2013-01-26 09:24:00,19.4,8.9,29.65,WNW,292,2.2,2.2,63,0.00,,,0.00,VWS V14.01,2013-01-26 14:24:00,
2013-01-26 09:29:00,19.6,9.1,29.65,WNW,292,2.0,2.0,63,0.00,,,0.00,VWS V14.01,2013-01-26 14:29:00,
2013-01-26 09:34:00,19.9,9.0,29.68,NW,315,2.5,2.5,62,0.00,,,0.00,VWS V14.01,2013-01-26 14:34:00,
2013-01-26 09:39:00,20.3,9.4,29.68,NW,315,2.5,2.5,62,0.00,,,0.00,VWS V14.01,2013-01-26 14:39:00,
2013-01-26 09:44:00,20.5,9.6,29.68,NW,315,1.3,1.3,62,0.00,,,0.00,VWS V14.01,2013-01-26 14:44:00,
2013-01-26 09:49:00,20.7,9.7,29.68,NW,315,2.2,2.2,62,0.00,,,0.00,VWS V14.01,2013-01-26 14:49:00,
2013-01-26 09:54:00,20.8,9.5,29.68,NW,315,1.3,1.3,61,0.00,,,0.00,VWS V14.01,2013-01-26 14:54:00,
2013-01-26 09:59:00,21.0,9.7,29.68,NNW,338,2.5,2.5,61,0.00,,,0.00,VWS V14.01,2013-01-26 14:59:00,
2013-01-26 10:04:00,21.0,9.3,29.68,NNW,338,3.4,3.4,60,0.00,,,0.00,VWS V14.01,2013-01-26 15:04:00,
2013-01-26 10:09:00,21.2,9.5,29.68,NNW,338,4.0,4.0,60,0.00,,,0.00,VWS V14.01,2013-01-26 15:09:00,
2013-01-26 10:14:00,21.2,9.1,29.68,NNW,338,2.5,2.5,59,0.00,,,0.00,VWS V14.01,2013-01-26 15:14:00,
2013-01-26 10:19:00,21.4,9.3,29.68,NNW,338,3.6,3.6,59,0.00,,,0.00,VWS V14.01,2013-01-26 15:19:00,
2013-01-26 10:24:00,21.4,8.9,29.68,NNE,22,3.8,3.8,58,0.00,,,0.00,VWS V14.01,2013-01-26 15:24:00,
2013-01-26 10:29:00,21.7,9.2,29.68,North,0,2.5,2.5,58,0.00,,,0.00,VWS V14.01,2013-01-26 15:29:00,
2013-01-26 10:34:00,21.7,8.9,29.71,NW,315,3.4,3.4,57,0.00,,,0.00,VWS V14.01,2013-01-26 15:34:00,
2013-01-26 10:39:00,21.9,9.0,29.71,NNW,338,2.5,2.5,57,0.00,,,0.00,VWS V14.01,2013-01-26 15:39:00,
2013-01-26 10:44:00,21.9,8.6,29.71,NNE,22,2.5,2.5,56,0.00,,,0.00,VWS V14.01,2013-01-26 15:44:00,
2013-01-26 10:49:00,22.1,8.8,29.71,NNW,338,1.6,1.6,56,0.00,,,0.00,VWS V14.01,2013-01-26 15:49:00,
2013-01-26 10:54:00,22.3,9.4,29.71,NNE,22,4.0,4.0,57,0.00,,,0.00,VWS V14.01,2013-01-26 15:54:00,
2013-01-26 10:59:00,22.5,9.5,29.71,NE,45,2.7,2.7,57,0.00,,,0.00,VWS V14.01,2013-01-26 15:59:00,
2013-01-26 11:04:00,22.6,9.7,29.68,NE,45,0.0,0.0,57,0.00,,,0.00,VWS V14.01,2013-01-26 16:04:00,
2013-01-26 11:09:00,22.6,9.3,29.68,NE,45,1.3,1.3,56,0.00,,,0.00,VWS V14.01,2013-01-26 16:09:00,
2013-01-26 11:14:00,22.8,9.5,29.68,NNE,22,1.6,1.6,56,0.00,,,0.00,VWS V14.01,2013-01-26 16:14:00,
2013-01-26 11:19:00,23.0,9.7,29.68,NE,45,0.0,0.0,56,0.00,,,0.00,VWS V14.01,2013-01-26 16:19:00,
2013-01-26 11:24:00,23.0,9.2,29.68,NE,45,1.6,1.6,55,0.00,,,0.00,VWS V14.01,2013-01-26 16:24:00,
2013-01-26 11:30:00,22.8,9.1,29.68,NE,45,3.1,3.1,55,0.00,,,0.00,VWS V14.01,2013-01-26 16:30:00,
2013-01-26 11:34:00,22.8,9.1,29.68,SSE,158,2.0,2.0,55,0.00,,,0.00,VWS V14.01,2013-01-26 16:34:00,
2013-01-26 11:40:00,22.6,8.9,29.68,SSE,158,3.8,3.8,55,0.00,,,0.00,VWS V14.01,2013-01-26 16:40:00,
2013-01-26 11:45:00,22.6,8.9,29.68,ENE,68,1.3,1.3,55,0.00,,,0.00,VWS V14.01,2013-01-26 16:45:00,
2013-01-26 11:50:00,22.3,8.6,29.68,NNE,22,4.9,4.9,55,0.00,,,0.00,VWS V14.01,2013-01-26 16:50:00,
2013-01-26 11:55:00,22.3,8.2,29.68,NNE,22,0.0,0.0,54,0.00,,,0.00,VWS V14.01,2013-01-26 16:55:00,
2013-01-26 12:00:00,22.3,8.2,29.68,NNE,22,4.9,4.9,54,0.00,,,0.00,VWS V14.01,2013-01-26 17:00:00,
2013-01-26 12:05:00,22.3,8.2,29.68,NNE,22,2.9,2.9,54,0.00,,,0.00,VWS V14.01,2013-01-26 17:05:00,
2013-01-26 12:10:00,22.5,8.8,29.68,NE,45,2.2,2.2,55,0.00,,,0.00,VWS V14.01,2013-01-26 17:10:00,
2013-01-26 12:15:00,22.5,8.3,29.68,NNW,338,2.9,2.9,54,0.00,,,0.00,VWS V14.01,2013-01-26 17:15:00,
2013-01-26 12:20:00,22.3,8.2,29.68,NNE,22,3.8,3.8,54,0.00,,,0.00,VWS V14.01,2013-01-26 17:20:00,
2013-01-26 12:25:00,22.5,8.3,29.68,NNE,22,3.1,3.1,54,0.00,,,0.00,VWS V14.01,2013-01-26 17:25:00,
2013-01-26 12:30:00,22.5,8.3,29.68,NNE,22,2.9,2.9,54,0.00,,,0.00,VWS V14.01,2013-01-26 17:30:00,
2013-01-26 12:35:00,22.6,8.5,29.65,SSW,202,1.6,1.6,54,0.00,,,0.00,VWS V14.01,2013-01-26 17:35:00,
2013-01-26 12:40:00,22.6,8.5,29.65,NNW,338,2.0,2.0,54,0.00,,,0.00,VWS V14.01,2013-01-26 17:40:00,
2013-01-26 12:45:00,22.6,8.1,29.65,NNW,338,0.0,0.0,53,0.00,,,0.00,VWS V14.01,2013-01-26 17:45:00,
2013-01-26 12:50:00,22.8,8.3,29.65,WSW,248,1.1,1.1,53,0.00,,,0.00,VWS V14.01,2013-01-26 17:50:00,
2013-01-26 12:55:00,23.2,8.6,29.65,SSE,158,1.1,1.1,53,0.00,,,0.00,VWS V14.01,2013-01-26 17:55:00,
2013-01-26 13:00:00,23.2,8.6,29.65,NE,45,2.7,2.7,53,0.00,,,0.00,VWS V14.01,2013-01-26 18:00:00,
2013-01-26 13:05:00,23.4,8.8,29.65,NE,45,3.1,3.1,53,0.00,,,0.00,VWS V14.01,2013-01-26 18:05:00,
2013-01-26 13:10:00,23.5,8.9,29.65,ENE,68,1.6,1.6,53,0.00,,,0.00,VWS V14.01,2013-01-26 18:10:00,
2013-01-26 13:15:00,23.5,8.9,29.65,ENE,68,1.6,1.6,53,0.00,,,0.00,VWS V14.01,2013-01-26 18:15:00,
2013-01-26 13:20:00,23.7,9.1,29.65,NNE,22,2.7,2.7,53,0.00,,,0.00,VWS V14.01,2013-01-26 18:20:00,
2013-01-26 13:26:00,23.7,9.1,29.65,NE,45,4.3,4.3,53,0.00,,,0.00,VWS V14.01,2013-01-26 18:26:00,
2013-01-26 13:31:00,23.7,9.1,29.65,NNE,22,6.3,6.3,53,0.00,,,0.00,VWS V14.01,2013-01-26 18:31:00,
2013-01-26 13:36:00,23.7,8.7,29.62,NNE,22,6.0,6.0,52,0.00,,,0.00,VWS V14.01,2013-01-26 18:36:00,
2013-01-26 13:41:00,23.9,8.9,29.62,North,0,2.7,2.7,52,0.00,,,0.00,VWS V14.01,2013-01-26 18:41:00,
2013-01-26 13:46:00,24.1,9.0,29.62,NNE,22,0.9,0.9,52,0.00,,,0.00,VWS V14.01,2013-01-26 18:46:00,
2013-01-26 13:51:00,24.3,9.2,29.62,NNW,338,3.8,3.8,52,0.00,,,0.00,VWS V14.01,2013-01-26 18:51:00,
2013-01-26 13:56:00,24.3,9.2,29.62,NNE,22,6.9,6.9,52,0.00,,,0.00,VWS V14.01,2013-01-26 18:56:00,
2013-01-26 14:01:00,24.4,9.4,29.62,ESE,112,3.6,3.6,52,0.00,,,0.00,VWS V14.01,2013-01-26 19:01:00,
2013-01-26 14:06:00,24.4,9.4,29.65,NE,45,3.1,3.1,52,0.00,,,0.00,VWS V14.01,2013-01-26 19:06:00,
2013-01-26 14:11:00,24.4,9.4,29.65,NNE,22,5.8,5.8,52,0.00,,,0.00,VWS V14.01,2013-01-26 19:11:00,
2013-01-26 14:16:00,24.4,9.4,29.65,NNE,22,3.4,3.4,52,0.00,,,0.00,VWS V14.01,2013-01-26 19:16:00,
2013-01-26 14:21:00,24.4,9.4,29.65,NNE,22,3.6,3.6,52,0.00,,,0.00,VWS V14.01,2013-01-26 19:21:00,
2013-01-26 14:26:00,24.6,9.5,29.65,NNE,22,2.7,2.7,52,0.00,,,0.00,VWS V14.01,2013-01-26 19:26:00,
2013-01-26 14:31:00,24.8,9.7,29.65,NNE,22,2.7,2.7,52,0.00,,,0.00,VWS V14.01,2013-01-26 19:31:00,
2013-01-26 14:36:00,25.2,9.6,29.62,NE,45,1.6,1.6,51,0.00,,,0.00,VWS V14.01,2013-01-26 19:36:00,
2013-01-26 14:41:00,25.3,9.8,29.62,NE,45,3.4,3.4,51,0.00,,,0.00,VWS V14.01,2013-01-26 19:41:00,
2013-01-26 14:46:00,25.5,9.9,29.62,NNE,22,2.7,2.7,51,0.00,,,0.00,VWS V14.01,2013-01-26 19:46:00,
2013-01-26 14:51:00,25.7,10.1,29.62,NE,45,2.5,2.5,51,0.00,,,0.00,VWS V14.01,2013-01-26 19:51:00,
2013-01-26 14:56:00,25.9,10.3,29.62,NE,45,3.6,3.6,51,0.00,,,0.00,VWS V14.01,2013-01-26 19:56:00,
2013-01-26 15:01:00,25.7,10.1,29.62,NNE,22,2.7,2.7,51,0.00,,,0.00,VWS V14.01,2013-01-26 20:01:00,
2013-01-26 15:07:00,25.7,9.6,29.62,NE,45,2.5,2.5,50,0.00,,,0.00,VWS V14.01,2013-01-26 20:07:00,
2013-01-26 15:12:00,25.7,9.6,29.62,ENE,68,1.3,1.3,50,0.00,,,0.00,VWS V14.01,2013-01-26 20:12:00,
2013-01-26 15:17:00,25.7,9.6,29.62,ENE,68,2.5,2.5,50,0.00,,,0.00,VWS V14.01,2013-01-26 20:17:00,
2013-01-26 15:22:00,25.7,9.6,29.65,NNE,22,4.3,4.3,50,0.00,,,0.00,VWS V14.01,2013-01-26 20:22:00,
2013-01-26 15:27:00,26.1,10.0,29.65,NNE,22,4.3,4.3,50,0.00,,,0.00,VWS V14.01,2013-01-26 20:27:00,
2013-01-26 15:32:00,26.2,10.1,29.65,North,0,4.0,4.0,50,0.00,,,0.00,VWS V14.01,2013-01-26 20:32:00,
2013-01-26 15:37:00,26.4,10.3,29.65,NNE,22,2.2,2.2,50,0.00,,,0.00,VWS V14.01,2013-01-26 20:37:00,
2013-01-26 15:42:00,26.6,10.5,29.65,North,0,4.5,4.5,50,0.00,,,0.00,VWS V14.01,2013-01-26 20:42:00,
2013-01-26 15:47:00,26.6,10.5,29.65,NNE,22,2.9,2.9,50,0.00,,,0.00,VWS V14.01,2013-01-26 20:47:00,
2013-01-26 15:52:00,26.8,10.2,29.68,NE,45,1.6,1.6,49,0.00,,,0.00,VWS V14.01,2013-01-26 20:52:00,
2013-01-26 15:57:00,26.8,9.7,29.68,NNE,22,0.0,0.0,48,0.00,,,0.00,VWS V14.01,2013-01-26 20:57:00,
2013-01-26 16:02:00,26.8,9.7,29.68,ENE,68,0.0,0.0,48,0.00,,,0.00,VWS V14.01,2013-01-26 21:02:00,
2013-01-26 16:07:00,26.8,9.7,29.68,NW,315,1.3,1.3,48,0.00,,,0.00,VWS V14.01,2013-01-26 21:07:00,
2013-01-26 16:12:00,26.8,9.7,29.68,NNE,22,3.8,3.8,48,0.00,,,0.00,VWS V14.01,2013-01-26 21:12:00,
2013-01-26 16:18:00,26.6,9.6,29.68,North,0,2.7,2.7,48,0.00,,,0.00,VWS V14.01,2013-01-26 21:18:00,
2013-01-26 16:22:00,26.6,9.6,29.68,WNW,292,3.1,3.1,48,0.00,,,0.00,VWS V14.01,2013-01-26 21:22:00,
2013-01-26 16:28:00,26.6,9.6,29.68,West,270,0.9,0.9,48,0.00,,,0.00,VWS V14.01,2013-01-26 21:28:00,
2013-01-26 16:33:00,26.2,9.2,29.68,WSW,248,2.0,2.0,48,0.00,,,0.00,VWS V14.01,2013-01-26 21:33:00,
2013-01-26 16:38:00,26.1,9.1,29.68,WSW,248,1.3,1.3,48,0.00,,,0.00,VWS V14.01,2013-01-26 21:38:00,
2013-01-26 16:43:00,25.9,8.9,29.68,West,270,2.2,2.2,48,0.00,,,0.00,VWS V14.01,2013-01-26 21:43:00,
2013-01-26 16:48:00,25.5,8.6,29.68,WSW,248,3.4,3.4,48,0.00,,,0.00,VWS V14.01,2013-01-26 21:48:00,
2013-01-26 16:53:00,25.3,8.4,29.68,WSW,248,2.5,2.5,48,0.00,,,0.00,VWS V14.01,2013-01-26 21:53:00,
2013-01-26 16:58:00,25.2,8.2,29.68,WSW,248,2.9,2.9,48,0.00,,,0.00,VWS V14.01,2013-01-26 21:58:00,
2013-01-26 17:03:00,25.0,8.1,29.71,WSW,248,2.0,2.0,48,0.00,,,0.00,VWS V14.01,2013-01-26 22:03:00,
2013-01-26 17:08:00,25.0,8.5,29.71,NW,315,0.0,0.0,49,0.00,,,0.00,VWS V14.01,2013-01-26 22:08:00,
2013-01-26 17:13:00,25.0,8.5,29.71,NW,315,0.0,0.0,49,0.00,,,0.00,VWS V14.01,2013-01-26 22:13:00,
2013-01-26 17:18:00,24.8,8.4,29.71,NNE,22,0.0,0.0,49,0.00,,,0.00,VWS V14.01,2013-01-26 22:18:00,
2013-01-26 17:23:00,24.6,8.6,29.71,NNW,338,0.0,0.0,50,0.00,,,0.00,VWS V14.01,2013-01-26 22:23:00,
2013-01-26 17:29:00,24.3,7.9,29.71,WNW,292,1.6,1.6,49,0.00,,,0.00,VWS V14.01,2013-01-26 22:29:00,
2013-01-26 17:34:00,24.4,8.0,29.71,West,270,2.5,2.5,49,0.00,,,0.00,VWS V14.01,2013-01-26 22:34:00,
2013-01-26 17:39:00,24.1,7.7,29.71,WSW,248,2.2,2.2,49,0.00,,,0.00,VWS V14.01,2013-01-26 22:39:00,
2013-01-26 17:44:00,23.7,7.8,29.71,SW,225,3.1,3.1,50,0.00,,,0.00,VWS V14.01,2013-01-26 22:44:00,
2013-01-26 17:49:00,23.0,7.1,29.71,WSW,248,2.7,2.7,50,0.00,,,0.00,VWS V14.01,2013-01-26 22:49:00,
2013-01-26 17:54:00,22.8,7.4,29.71,West,270,2.2,2.2,51,0.00,,,0.00,VWS V14.01,2013-01-26 22:54:00,
2013-01-26 17:59:00,23.0,7.6,29.71,West,270,2.7,2.7,51,0.00,,,0.00,VWS V14.01,2013-01-26 22:59:00,
2013-01-26 18:04:00,23.0,7.6,29.74,WSW,248,2.0,2.0,51,0.00,,,0.00,VWS V14.01,2013-01-26 23:04:00,
2013-01-26 18:09:00,22.6,7.2,29.74,WSW,248,2.5,2.5,51,0.00,,,0.00,VWS V14.01,2013-01-26 23:09:00,
2013-01-26 18:14:00,22.3,7.3,29.74,West,270,2.0,2.0,52,0.00,,,0.00,VWS V14.01,2013-01-26 23:14:00,
2013-01-26 18:19:00,22.3,7.3,29.74,WSW,248,2.5,2.5,52,0.00,,,0.00,VWS V14.01,2013-01-26 23:19:00,
2013-01-26 18:24:00,22.1,7.2,29.74,SW,225,2.2,2.2,52,0.00,,,0.00,VWS V14.01,2013-01-26 23:24:00,
2013-01-26 18:29:00,21.7,6.8,29.74,WSW,248,2.5,2.5,52,0.00,,,0.00,VWS V14.01,2013-01-26 23:29:00,
2013-01-26 18:34:00,21.4,6.9,29.74,SW,225,2.2,2.2,53,0.00,,,0.00,VWS V14.01,2013-01-26 23:34:00,
2013-01-26 18:40:00,21.6,7.1,29.74,SW,225,1.3,1.3,53,0.00,,,0.00,VWS V14.01,2013-01-26 23:40:00,
2013-01-26 18:45:00,21.6,7.1,29.74,WSW,248,1.3,1.3,53,0.00,,,0.00,VWS V14.01,2013-01-26 23:45:00,
2013-01-26 18:50:00,21.4,6.9,29.74,WSW,248,0.0,0.0,53,0.00,,,0.00,VWS V14.01,2013-01-26 23:50:00,
2013-01-26 18:55:00,21.4,6.9,29.74,WSW,248,0.0,0.0,53,0.00,,,0.00,VWS V14.01,2013-01-26 23:55:00,
2013-01-26 19:00:00,21.2,6.8,29.74,WSW,248,0.0,0.0,53,0.00,,,0.00,VWS V14.01,2013-01-27 00:00:00,
2013-01-26 19:05:00,21.2,7.2,29.74,WSW,248,0.0,0.0,54,0.00,,,0.00,VWS V14.01,2013-01-27 00:05:00,
2013-01-26 19:10:00,20.8,6.8,29.74,WSW,248,2.2,2.2,54,0.00,,,0.00,VWS V14.01,2013-01-27 00:10:00,
2013-01-26 19:15:00,20.7,6.2,29.74,WSW,248,2.0,2.0,53,0.00,,,0.00,VWS V14.01,2013-01-27 00:15:00,
2013-01-26 19:20:00,20.3,6.3,29.74,WSW,248,1.6,1.6,54,0.00,,,0.00,VWS V14.01,2013-01-27 00:20:00,
2013-01-26 19:25:00,20.5,6.5,29.74,SW,225,2.2,2.2,54,0.00,,,0.00,VWS V14.01,2013-01-27 00:25:00,
2013-01-26 19:30:00,20.3,6.3,29.74,WSW,248,1.3,1.3,54,0.00,,,0.00,VWS V14.01,2013-01-27 00:30:00,
2013-01-26 19:35:00,20.3,6.3,29.76,WSW,248,1.6,1.6,54,0.00,,,0.00,VWS V14.01,2013-01-27 00:35:00,
2013-01-26 19:40:00,20.3,6.3,29.76,WSW,248,2.5,2.5,54,0.00,,,0.00,VWS V14.01,2013-01-27 00:40:00,
2013-01-26 19:45:00,19.6,5.7,29.76,WSW,248,2.7,2.7,54,0.00,,,0.00,VWS V14.01,2013-01-27 00:45:00,
2013-01-26 19:50:00,19.0,5.5,29.76,WSW,248,3.4,3.4,55,0.00,,,0.00,VWS V14.01,2013-01-27 00:50:00,
2013-01-26 19:55:00,18.7,5.2,29.76,WSW,248,3.4,3.4,55,0.00,,,0.00,VWS V14.01,2013-01-27 00:55:00,
2013-01-26 20:01:00,18.3,4.9,29.76,WSW,248,3.4,3.4,55,0.00,,,0.00,VWS V14.01,2013-01-27 01:01:00,
2013-01-26 20:06:00,18.3,5.3,29.79,SSW,202,2.9,2.9,56,0.00,,,0.00,VWS V14.01,2013-01-27 01:06:00,
2013-01-26 20:11:00,18.5,5.4,29.79,SW,225,3.4,3.4,56,0.00,,,0.00,VWS V14.01,2013-01-27 01:11:00,
2013-01-26 20:16:00,18.5,5.4,29.79,SSW,202,3.1,3.1,56,0.00,,,0.00,VWS V14.01,2013-01-27 01:16:00,
2013-01-26 20:21:00,18.5,5.4,29.79,SSW,202,3.6,3.6,56,0.00,,,0.00,VWS V14.01,2013-01-27 01:21:00,
2013-01-26 20:26:00,18.3,5.3,29.79,SW,225,2.5,2.5,56,0.00,,,0.00,VWS V14.01,2013-01-27 01:26:00,
2013-01-26 20:31:00,18.3,5.3,29.79,SW,225,2.7,2.7,56,0.00,,,0.00,VWS V14.01,2013-01-27 01:31:00,
2013-01-26 20:36:00,18.1,5.5,29.79,WSW,248,2.9,2.9,57,0.00,,,0.00,VWS V14.01,2013-01-27 01:36:00,
2013-01-26 20:41:00,18.1,5.5,29.79,SW,225,2.0,2.0,57,0.00,,,0.00,VWS V14.01,2013-01-27 01:41:00,
2013-01-26 20:46:00,18.1,5.5,29.79,WSW,248,0.9,0.9,57,0.00,,,0.00,VWS V14.01,2013-01-27 01:46:00,
2013-01-26 20:51:00,18.3,5.7,29.79,WSW,248,0.0,0.0,57,0.00,,,0.00,VWS V14.01,2013-01-27 01:51:00,
2013-01-26 20:56:00,18.0,5.3,29.79,WSW,248,2.0,2.0,57,0.00,,,0.00,VWS V14.01,2013-01-27 01:56:00,
2013-01-26 21:01:00,17.6,5.0,29.79,WSW,248,2.0,2.0,57,0.00,,,0.00,VWS V14.01,2013-01-27 02:01:00,
2013-01-26 21:06:00,18.0,5.3,29.79,West,270,1.3,1.3,57,0.00,,,0.00,VWS V14.01,2013-01-27 02:06:00,
2013-01-26 21:11:00,18.3,6.0,29.79,WSW,248,2.5,2.5,58,0.00,,,0.00,VWS V14.01,2013-01-27 02:11:00,
2013-01-26 21:16:00,17.8,5.1,29.79,WSW,248,2.0,2.0,57,0.00,,,0.00,VWS V14.01,2013-01-27 02:16:00,
2013-01-26 21:21:00,17.6,5.0,29.76,SSW,202,2.7,2.7,57,0.00,,,0.00,VWS V14.01,2013-01-27 02:21:00,
2013-01-26 21:26:00,17.2,5.0,29.76,SSW,202,2.7,2.7,58,0.00,,,0.00,VWS V14.01,2013-01-27 02:26:00,
2013-01-26 21:31:00,17.1,4.8,29.76,South,180,1.1,1.1,58,0.00,,,0.00,VWS V14.01,2013-01-27 02:31:00,
2013-01-26 21:36:00,17.1,4.5,29.79,South,180,0.0,0.0,57,0.00,,,0.00,VWS V14.01,2013-01-27 02:36:00,
2013-01-26 21:41:00,16.9,4.7,29.79,SW,225,2.5,2.5,58,0.00,,,0.00,VWS V14.01,2013-01-27 02:41:00,
2013-01-26 21:46:00,17.1,5.2,29.79,SSW,202,1.3,1.3,59,0.00,,,0.00,VWS V14.01,2013-01-27 02:46:00,
2013-01-26 21:51:00,17.4,5.6,29.82,SW,225,1.6,1.6,59,0.00,,,0.00,VWS V14.01,2013-01-27 02:51:00,
2013-01-26 21:56:00,17.2,5.0,29.82,SSW,202,2.0,2.0,58,0.00,,,0.00,VWS V14.01,2013-01-27 02:56:00,
2013-01-26 22:01:00,16.7,4.5,29.82,SSW,202,2.2,2.2,58,0.00,,,0.00,VWS V14.01,2013-01-27 03:01:00,
2013-01-26 22:06:00,15.8,3.3,29.82,WSW,248,2.2,2.2,57,0.00,,,0.00,VWS V14.01,2013-01-27 03:06:00,
2013-01-26 22:11:00,15.8,3.7,29.82,WNW,292,0.0,0.0,58,0.00,,,0.00,VWS V14.01,2013-01-27 03:11:00,
2013-01-26 22:16:00,16.2,4.0,29.82,WNW,292,0.0,0.0,58,0.00,,,0.00,VWS V14.01,2013-01-27 03:16:00,
2013-01-26 22:21:00,16.2,4.0,29.82,WNW,292,0.0,0.0,58,0.00,,,0.00,VWS V14.01,2013-01-27 03:21:00,
2013-01-26 22:26:00,15.8,3.7,29.82,SSW,202,2.5,2.5,58,0.00,,,0.00,VWS V14.01,2013-01-27 03:26:00,
2013-01-26 22:31:00,15.3,2.8,29.82,SSW,202,2.9,2.9,57,0.00,,,0.00,VWS V14.01,2013-01-27 03:31:00,
2013-01-26 22:36:00,15.1,2.6,29.82,SSW,202,1.6,1.6,57,0.00,,,0.00,VWS V14.01,2013-01-27 03:36:00,
2013-01-26 22:41:00,14.7,2.3,29.82,SSW,202,1.6,1.6,57,0.00,,,0.00,VWS V14.01,2013-01-27 03:41:00,
2013-01-26 22:46:00,14.4,2.3,29.82,SSW,202,2.0,2.0,58,0.00,,,0.00,VWS V14.01,2013-01-27 03:46:00,
2013-01-26 22:51:00,14.0,2.3,29.85,SSW,202,2.5,2.5,59,0.00,,,0.00,VWS V14.01,2013-01-27 03:51:00,
2013-01-26 22:56:00,14.2,2.9,29.85,SSW,202,2.5,2.5,60,0.00,,,0.00,VWS V14.01,2013-01-27 03:56:00,
2013-01-26 23:01:00,14.2,2.9,29.85,SSW,202,2.2,2.2,60,0.00,,,0.00,VWS V14.01,2013-01-27 04:01:00,
2013-01-26 23:06:00,14.4,3.0,29.85,SSW,202,2.0,2.0,60,0.00,,,0.00,VWS V14.01,2013-01-27 04:06:00,
2013-01-26 23:11:00,14.4,3.0,29.85,SSW,202,2.5,2.5,60,0.00,,,0.00,VWS V14.01,2013-01-27 04:11:00,
2013-01-26 23:16:00,13.8,2.5,29.85,SSW,202,2.7,2.7,60,0.00,,,0.00,VWS V14.01,2013-01-27 04:16:00,
2013-01-26 23:21:00,14.0,3.0,29.85,WSW,248,2.5,2.5,61,0.00,,,0.00,VWS V14.01,2013-01-27 04:21:00,
2013-01-26 23:26:00,14.2,3.6,29.85,SW,225,2.5,2.5,62,0.00,,,0.00,VWS V14.01,2013-01-27 04:26:00,
2013-01-26 23:31:00,14.2,3.2,29.85,SSW,202,2.5,2.5,61,0.00,,,0.00,VWS V14.01,2013-01-27 04:31:00,
2013-01-26 23:36:00,14.2,3.2,29.85,SSW,202,2.5,2.5,61,0.00,,,0.00,VWS V14.01,2013-01-27 04:36:00,
2013-01-26 23:41:00,14.4,3.4,29.85,SSW,202,2.0,2.0,61,0.00,,,0.00,VWS V14.01,2013-01-27 04:41:00,
2013-01-26 23:47:00,14.2,2.9,29.85,SW,225,2.5,2.5,60,0.00,,,0.00,VWS V14.01,2013-01-27 04:47:00,
2013-01-26 23:52:00,13.8,2.9,29.85,SW,225,1.6,1.6,61,0.00,,,0.00,VWS V14.01,2013-01-27 04:52:00,
2013-01-26 23:57:00,14.0,3.4,29.85,WSW,248,1.6,1.6,62,0.00,,,0.00,VWS V14.01,2013-01-27 04:57:00,